Miscellaneous Local Product
Issued by NWS North Platte, NE

Home | Current Version | Previous Version | Graphics & Text | Print | Product List | Glossary On
Versions: 1 2 3 4 5 6 7 8 9 10 11 12 13 14 15 16 17 18 19 20 21 22 23 24 25 26 27 28 29 30 31 32 33 34 35 36 37 38 39 40 41 42 43 44 45 46 47 48 49 50
631
AXUS43 KLBF 260510
MISLBF


WESTERN AND NORTH CENTRAL NEBRASKA HOURLY WEATHER ROUNDUP
NATIONAL WEATHER SERVICE NORTH PLATTE NE
1200 AM CDT WED APR 26 2017

NOTE: "FAIR" INDICATES FEW OR NO CLOUDS BELOW 12,000 FEET WITH NO
SIGNIFICANT WEATHER AND/OR OBSTRUCTIONS TO VISIBILITY.

NOTE: STATIONS NOT REPORTING VARIABLES SUCH AS SKY/WEATHER OR
PRESSURE ARE PROVIDED BY RAWS AND APRS NETWORKS AND ARE NOT UNDER
NATIONAL WEATHER SERVICE QUALITY CONTROL.

...OBSERVATIONS IN AND NEAR THE EASTERN PANHANDLE OF NEBRASKA...

CITY           SKY/WX    TMP DP  RH WIND       PRES   REMARKS
PINE RIDGE     CLOUDY    29  25  85 N8        29.89S WCI  21
CHADRON        FLURRIES  28  25  88 N9        29.91S WCI  19
ALLIANCE       CLOUDY    29  24  82 N14       29.86R WCI  18
SIDNEY         CLOUDY    31  29  92 N14       29.85R WCI  21
CRESCENT LAKE    N/A     30  25  83 N16G24      N/A  WCI  19
$$

...OBSERVATIONS IN NORTHERN NEBRASKA AND FAR SOUTHERN SOUTH DAKOTA...

CITY           SKY/WX    TMP DP  RH WIND       PRES   REMARKS
WINNER         CLOUDY    33  29  85 N17       29.82S WCI  22
VALENTINE      CLOUDY    32  25  75 NW14G25   29.83S WCI  22
THEDFORD       CLOUDY    32  28  86 NW13      29.82R WCI  22
AINSWORTH      CLOUDY    31  30  95 N17       29.80S FOG     WCI  20
O`NEILL        CLOUDY    35  32  89 N18       29.75S WCI  24
ORD            CLOUDY    36  31  82 NW22G30   29.73R WCI  25
BROKEN BOW     CLOUDY    34  30  85 N24G31    29.75S WCI  21
VALENTINE NWR    N/A     30  28  92 N16G25      N/A  WCI  19
HALSEY           N/A     50  28  43 NW10G23     N/A
BUTTE            N/A     32  29  88 N18G26      N/A  WCI  20
CHAMBERS         N/A     35  32  90 N10         N/A  WCI  27
EWING            N/A     34  32  94 N16G24      N/A  WCI  24
$$

...OBSERVATIONS IN SOUTHWEST NEBRASKA AND FAR NORTHEAST COLORADO...

CITY           SKY/WX    TMP DP  RH WIND       PRES   REMARKS
HOLYOKE        MOCLDY    37  32  81 N13       29.82F WCI  29
IMPERIAL       CLOUDY    36  30  79 N18G24    29.81S WCI  26
OGALLALA       CLOUDY    36  28  74 N13       29.83F WCI  27
NORTH PLATTE   CLOUDY    35  28  75 NW18G26   29.80R WCI  24
MCCOOK         CLOUDY    39  33  79 N17G24    29.75F WCI  30
LEXINGTON      CLOUDY    36  32  84 N18G24    29.75F WCI  26
STAPLETON        N/A     32  28  85 CALM        N/A
GOTHENBURG       N/A     36  30  78 NW12        N/A  WCI  28
CALLAWAY         N/A     33  30  90 N17         N/A  WCI  22
$$

...OBSERVATIONS IN CENTRAL LINCOLN COUNTY AREA...

CITY           SKY/WX    TMP DP  RH WIND       PRES   REMARKS
N.P. AIRPORT   CLOUDY    35  28  75 NW18G26   29.80R WCI  24
N.P. DOWNTOWN    N/A     34  29  83 NW8G17      N/A  WCI  27
N.P. SOUTHEAST   N/A     34  29  82 N9G20       N/A  WCI  27
N.P. HILLCREST   N/A     33  29  86 N15G23      N/A  WCI  23
$$

...SOME OBSERVATIONS FROM AROUND THE REGION...

CITY           SKY/WX    TMP DP  RH WIND       PRES   REMARKS
DENVER         CLOUDY    33  27  78 NE15      29.85R WCI  23
LIMON          CLOUDY    37  36  96 N16       29.79R WCI  28
ASPEN          CLOUDY    32  30  92 NE3       29.85R
LARAMIE        CLOUDY    28  23  81 NW14      29.83F WCI  17
CASPER         CLOUDY    29  26  89 CALM      29.89S
CHEYENNE       CLOUDY    27  22  81 N13       29.84R WCI  16
SCOTTSBLUFF    CLOUDY    32  25  75 N8        29.88F WCI  25
GRAND ISLAND   CLOUDY    37  35  92 N21G28    29.71S WCI  26
OMAHA          CLOUDY    43  38  82 NW16G24   29.59F
SIOUX FALLS    CLOUDY    37  37 100 N16G24    29.65F WCI  28
PIERRE         FLURRIES  32  28  85 NW13      29.84F WCI  22
RAPID CITY     CLOUDY    28  25  88 N18       29.91F WCI  15
BISMARCK       CLOUDY    37  28  70 N10       29.92S WCI  30
KANSAS CITY    CLOUDY    50  48  93 N13       29.49F
HILL CITY      CLOUDY    41  36  82 N20G28    29.73R
WICHITA        MOCLDY    47  43  86 N20G32    29.54R
DODGE CITY     CLOUDY    45  42  89 N24G30    29.63S
OKLAHOMA CITY  CLOUDY    59  56  89 N13       29.45S
DALLAS         MOCLDY    76  68  76 S22G35    29.41F
AMARILLO       CLOUDY    50  48  93 NW14      29.64R
$$




USA.gov is the U.S. government's official web portal to all federal, state and local government web resources and services.